Location: Charbonni�res
(45.9952°N, 2.9982°E)
Time: 18:31:43
(UTC+00:00)

COSMOS 2455 - Pass Details

Date: 29 November 2020
Orbit: 900 x 909 km, 67.1° (Epoch: 23 January)

Event Time Altitude Azimuth Distance (km) Brightness Sun altitude
Rises 06:00:25 0° 209° (SSW) 3,517 5.8 -11.3°
Reaches altitude 10° 06:02:54 10° 210° (SSW) 2,581 5.1 -10.9°
Maximum altitude 06:08:54 88° 122° (ESE) 914 2.9 -10.0°
Drops below altitude 10° 06:14:58 10° 33° (NNE) 2,602 5.4 -9.0°
Sets 06:17:29 0° 33° (NNE) 3,548 6.1 -8.6°
